owner,sensor,date,latitude,longitude,vertical_datum,sea_water_temperature,qcFlag 
DISL,ioos:station:DISL:KATA:1,2013-01-05T14:30:00Z,30.2583,-88.2131,0.0,12.8,2 
DISL,ioos:station:DISL:KATA:1,2013-01-05T15:00:00Z,30.2583,-88.2131,0.0,12.77,2 
DISL,ioos:station:DISL:KATA:1,2013-01-05T15:30:00Z,30.2583,-88.2131,0.0,12.75,2 
DISL,ioos:station:DISL:KATA:1,2013-01-05T16:00:00Z,30.2583,-88.2131,0.0,12.72,2 
DISL,ioos:station:DISL:KATA:1,2013-01-05T16:30:00Z,30.2583,-88.2131,0.0,12.69,2 
DISL,ioos:station:DISL:KATA:1,2013-01-05T17:00:00Z,30.2583,-88.2131,0.0,12.67,2 
DISL,ioos:station:DISL:KATA:1,2013-01-05T17:30:00Z,30.2583,-88.2131,0.0,12.64,2 
DISL,ioos:station:DISL:KATA:1,2013-01-05T18:00:00Z,30.2583,-88.2131,0.0,12.62,2 
DISL,ioos:station:DISL:KATA:1,2013-01-05T18:30:00Z,30.2583,-88.2131,0.0,12.62,2 
DISL,ioos:station:DISL:KATA:1,2013-01-05T19:00:00Z,30.2583,-88.2131,0.0,12.6,2 
DISL,ioos:station:DISL:KATA:1,2013-01-05T19:30:00Z,30.2583,-88.2131,0.0,12.58,2 
DISL,ioos:station:DISL:KATA:1,2013-01-05T20:00:00Z,30.2583,-88.2131,0.0,12.58,2 
DISL,ioos:station:DISL:KATA:1,2013-01-05T20:30:00Z,30.2583,-88.2131,0.0,12.58,2 
DISL,ioos:station:DISL:KATA:1,2013-01-05T21:00:00Z,30.2583,-88.2131,0.0,12.57,2 
DISL,ioos:station:DISL:KATA:1,2013-01-05T21:30:00Z,30.2583,-88.2131,0.0,12.59,2 
DISL,ioos:station:DISL:KATA:1,2013-01-05T22:00:00Z,30.2583,-88.2131,0.0,12.59,2 
DISL,ioos:station:DISL:KATA:1,2013-01-05T22:30:00Z,30.2583,-88.2131,0.0,12.57,2 
DISL,ioos:station:DISL:KATA:1,2013-01-05T23:00:00Z,30.2583,-88.2131,0.0,12.53,2 
DISL,ioos:station:DISL:KATA:1,2013-01-05T23:30:00Z,30.2583,-88.2131,0.0,12.49,2 
DISL,ioos:station:DISL:KATA:1,2013-01-08T00:00:00Z,30.2583,-88.2131,0.0,12.46,2 
DISL,ioos:station:DISL:KATA:1,2013-01-08T00:30:00Z,30.2583,-88.2131,0.0,12.4,2 
DISL,ioos:station:DISL:KATA:1,2013-01-08T01:00:00Z,30.2583,-88.2131,0.0,12.39,2 
DISL,ioos:station:DISL:KATA:1,2013-01-08T01:30:00Z,30.2583,-88.2131,0.0,12.39,2 
DISL,ioos:station:DISL:KATA:1,2013-01-08T02:00:00Z,30.2583,-88.2131,0.0,12.38,2 
DISL,ioos:station:DISL:KATA:1,2013-01-08T02:30:00Z,30.2583,-88.2131,0.0,12.37,2 
DISL,ioos:station:DISL:KATA:1,2013-01-08T03:00:00Z,30.2583,-88.2131,0.0,12.38,2 
DISL,ioos:station:DISL:KATA:1,2013-01-08T03:30:00Z,30.2583,-88.2131,0.0,12.37,2 
DISL,ioos:station:DISL:KATA:1,2013-01-08T04:00:00Z,30.2583,-88.2131,0.0,12.42,2 
DISL,ioos:station:DISL:KATA:1,2013-01-08T04:30:00Z,30.2583,-88.2131,0.0,12.42,2 
DISL,ioos:station:DISL:KATA:1,2013-01-08T05:00:00Z,30.2583,-88.2131,0.0,12.15,2 
DISL,ioos:station:DISL:KATA:1,2013-01-08T05:30:00Z,30.2583,-88.2131,0.0,11.67,2 
DISL,ioos:station:DISL:KATA:1,2013-01-08T06:00:00Z,30.2583,-88.2131,0.0,11.41,2 
DISL,ioos:station:DISL:KATA:1,2013-01-08T06:30:00Z,30.2583,-88.2131,0.0,11.93,2 
DISL,ioos:station:DISL:KATA:1,2013-01-08T07:00:00Z,30.2583,-88.2131,0.0,12.0,2 
DISL,ioos:station:DISL:KATA:1,2013-01-08T07:30:00Z,30.2583,-88.2131,0.0,12.01,2 
DISL,ioos:station:DISL:KATA:1,2013-01-08T08:00:00Z,30.2583,-88.2131,0.0,12.25,2 
DISL,ioos:station:DISL:KATA:1,2013-01-08T08:30:00Z,30.2583,-88.2131,0.0,12.35,2 
DISL,ioos:station:DISL:KATA:1,2013-01-08T09:00:00Z,30.2583,-88.2131,0.0,12.13,2 
DISL,ioos:station:DISL:KATA:1,2013-01-08T09:30:00Z,30.2583,-88.2131,0.0,12.15,2 
DISL,ioos:station:DISL:KATA:1,2013-01-08T10:00:00Z,30.2583,-88.2131,0.0,12.11,2 
DISL,ioos:station:DISL:KATA:1,2013-01-08T10:30:00Z,30.2583,-88.2131,0.0,12.16,2 
DISL,ioos:station:DISL:KATA:1,2013-01-08T11:00:00Z,30.2583,-88.2131,0.0,12.18,2 
DISL,ioos:station:DISL:KATA:1,2013-01-08T11:30:00Z,30.2583,-88.2131,0.0,12.19,2 
DISL,ioos:station:DISL:KATA:1,2013-01-08T12:00:00Z,30.2583,-88.2131,0.0,12.18,2 
DISL,ioos:station:DISL:KATA:1,2013-01-08T12:30:00Z,30.2583,-88.2131,0.0,12.16,2 
DISL,ioos:station:DISL:KATA:1,2013-01-08T13:00:00Z,30.2583,-88.2131,0.0,12.19,2 
DISL,ioos:station:DISL:KATA:1,2013-01-08T13:30:00Z,30.2583,-88.2131,0.0,12.22,2 
DISL,ioos:station:DISL:KATA:1,2013-01-08T14:00:00Z,30.2583,-88.2131,0.0,12.24,2 
DISL,ioos:station:DISL:KATA:1,2013-01-08T14:30:00Z,30.2583,-88.2131,0.0,12.3,2 
DISL,ioos:station:DISL:KATA:1,2013-01-08T15:00:00Z,30.2583,-88.2131,0.0,12.38,2 
DISL,ioos:station:DISL:KATA:1,2013-01-08T15:30:00Z,30.2583,-88.2131,0.0,12.39,2 
DISL,ioos:station:DISL:KATA:1,2013-01-08T16:00:00Z,30.2583,-88.2131,0.0,12.4,2 
DISL,ioos:station:DISL:KATA:1,2013-01-08T16:30:00Z,30.2583,-88.2131,0.0,12.42,2 
DISL,ioos:station:DISL:KATA:1,2013-01-08T17:00:00Z,30.2583,-88.2131,0.0,12.43,2 
DISL,ioos:station:DISL:KATA:1,2013-01-08T17:30:00Z,30.2583,-88.2131,0.0,12.44,2 
DISL,ioos:station:DISL:KATA:1,2013-01-08T18:00:00Z,30.2583,-88.2131,0.0,12.39,2 
DISL,ioos:station:DISL:KATA:1,2013-01-08T18:30:00Z,30.2583,-88.2131,0.0,12.35,2 
DISL,ioos:station:DISL:KATA:1,2013-01-08T19:00:00Z,30.2583,-88.2131,0.0,12.33,2 
DISL,ioos:station:DISL:KATA:1,2013-01-08T19:30:00Z,30.2583,-88.2131,0.0,12.32,2 
DISL,ioos:station:DISL:KATA:1,2013-01-08T20:00:00Z,30.2583,-88.2131,0.0,12.35,2 
DISL,ioos:station:DISL:KATA:1,2013-01-08T20:30:00Z,30.2583,-88.2131,0.0,12.36,2 
DISL,ioos:station:DISL:KATA:1,2013-01-08T21:00:00Z,30.2583,-88.2131,0.0,12.35,2 
DISL,ioos:station:DISL:KATA:1,2013-01-08T21:30:00Z,30.2583,-88.2131,0.0,12.35,2 
DISL,ioos:station:DISL:KATA:1,2013-01-08T22:00:00Z,30.2583,-88.2131,0.0,12.35,2 
DISL,ioos:station:DISL:KATA:1,2013-01-08T22:30:00Z,30.2583,-88.2131,0.0,12.34,2 
DISL,ioos:station:DISL:KATA:1,2013-01-08T23:00:00Z,30.2583,-88.2131,0.0,12.31,2 
DISL,ioos:station:DISL:KATA:1,2013-01-08T23:30:00Z,30.2583,-88.2131,0.0,12.3,2 
DISL,ioos:station:DISL:KATA:1,2013-01-09T00:00:00Z,30.2583,-88.2131,0.0,12.32,2 
DISL,ioos:station:DISL:KATA:1,2013-01-09T00:30:00Z,30.2583,-88.2131,0.0,12.35,2 
DISL,ioos:station:DISL:KATA:1,2013-01-09T01:00:00Z,30.2583,-88.2131,0.0,12.39,2 
DISL,ioos:station:DISL:KATA:1,2013-01-09T01:30:00Z,30.2583,-88.2131,0.0,12.49,2 
DISL,ioos:station:DISL:KATA:1,2013-01-09T02:00:00Z,30.2583,-88.2131,0.0,12.52,2 
DISL,ioos:station:DISL:KATA:1,2013-01-09T02:30:00Z,30.2583,-88.2131,0.0,12.56,2 
DISL,ioos:station:DISL:KATA:1,2013-01-09T03:00:00Z,30.2583,-88.2131,0.0,12.6,2 
DISL,ioos:station:DISL:KATA:1,2013-01-09T03:30:00Z,30.2583,-88.2131,0.0,12.65,2 
DISL,ioos:station:DISL:KATA:1,2013-01-09T04:00:00Z,30.2583,-88.2131,0.0,12.68,2 
DISL,ioos:station:DISL:KATA:1,2013-01-09T04:30:00Z,30.2583,-88.2131,0.0,12.68,2 
DISL,ioos:station:DISL:KATA:1,2013-01-09T05:00:00Z,30.2583,-88.2131,0.0,12.69,2 
DISL,ioos:station:DISL:KATA:1,2013-01-09T05:30:00Z,30.2583,-88.2131,0.0,12.69,2 
DISL,ioos:station:DISL:KATA:1,2013-01-09T06:00:00Z,30.2583,-88.2131,0.0,12.67,2 
DISL,ioos:station:DISL:KATA:1,2013-01-09T06:30:00Z,30.2583,-88.2131,0.0,12.58,2 
DISL,ioos:station:DISL:KATA:1,2013-01-09T07:00:00Z,30.2583,-88.2131,0.0,12.51,2 
DISL,ioos:station:DISL:KATA:1,2013-01-09T07:30:00Z,30.2583,-88.2131,0.0,12.39,2 
DISL,ioos:station:DISL:KATA:1,2013-01-09T08:00:00Z,30.2583,-88.2131,0.0,12.33,2 
DISL,ioos:station:DISL:KATA:1,2013-01-09T08:30:00Z,30.2583,-88.2131,0.0,12.29,2 
DISL,ioos:station:DISL:KATA:1,2013-01-09T09:00:00Z,30.2583,-88.2131,0.0,12.25,2 
DISL,ioos:station:DISL:KATA:1,2013-01-09T09:30:00Z,30.2583,-88.2131,0.0,12.24,2 
DISL,ioos:station:DISL:KATA:1,2013-01-09T10:00:00Z,30.2583,-88.2131,0.0,12.23,2 
DISL,ioos:station:DISL:KATA:1,2013-01-09T10:30:00Z,30.2583,-88.2131,0.0,12.21,2 
DISL,ioos:station:DISL:KATA:1,2013-01-09T11:00:00Z,30.2583,-88.2131,0.0,12.24,2 
DISL,ioos:station:DISL:KATA:1,2013-01-09T11:30:00Z,30.2583,-88.2131,0.0,12.26,2 
DISL,ioos:station:DISL:KATA:1,2013-01-09T12:00:00Z,30.2583,-88.2131,0.0,12.26,2 
DISL,ioos:station:DISL:KATA:1,2013-01-09T12:30:00Z,30.2583,-88.2131,0.0,12.3,2 
DISL,ioos:station:DISL:KATA:1,2013-01-09T13:00:00Z,30.2583,-88.2131,0.0,12.29,2 
DISL,ioos:station:DISL:KATA:1,2013-01-09T13:30:00Z,30.2583,-88.2131,0.0,12.35,2 
DISL,ioos:station:DISL:KATA:1,2013-01-09T14:00:00Z,30.2583,-88.2131,0.0,12.41,2 
DISL,ioos:station:DISL:KATA:1,2013-01-09T14:30:00Z,30.2583,-88.2131,0.0,12.58,2 
DISL,ioos:station:DISL:KATA:1,2013-01-09T15:00:00Z,30.2583,-88.2131,0.0,12.72,2 
DISL,ioos:station:DISL:KATA:1,2013-01-09T15:30:00Z,30.2583,-88.2131,0.0,12.72,2 
DISL,ioos:station:DISL:KATA:1,2013-01-09T16:00:00Z,30.2583,-88.2131,0.0,12.71,2 
DISL,ioos:station:DISL:KATA:1,2013-01-09T16:30:00Z,30.2583,-88.2131,0.0,12.71,2 
DISL,ioos:station:DISL:KATA:1,2013-01-09T17:00:00Z,30.2583,-88.2131,0.0,12.72,2 
DISL,ioos:station:DISL:KATA:1,2013-01-09T17:30:00Z,30.2583,-88.2131,0.0,12.72,2 
DISL,ioos:station:DISL:KATA:1,2013-01-09T18:00:00Z,30.2583,-88.2131,0.0,12.71,2 
DISL,ioos:station:DISL:KATA:1,2013-01-09T18:30:00Z,30.2583,-88.2131,0.0,12.68,2 
DISL,ioos:station:DISL:KATA:1,2013-01-09T19:00:00Z,30.2583,-88.2131,0.0,12.65,2 
DISL,ioos:station:DISL:KATA:1,2013-01-09T19:30:00Z,30.2583,-88.2131,0.0,12.63,2 
DISL,ioos:station:DISL:KATA:1,2013-01-09T20:00:00Z,30.2583,-88.2131,0.0,12.64,2 
DISL,ioos:station:DISL:KATA:1,2013-01-09T20:30:00Z,30.2583,-88.2131,0.0,12.65,2 
DISL,ioos:station:DISL:KATA:1,2013-01-09T21:00:00Z,30.2583,-88.2131,0.0,12.66,2 
DISL,ioos:station:DISL:KATA:1,2013-01-09T21:30:00Z,30.2583,-88.2131,0.0,12.68,2 
DISL,ioos:station:DISL:KATA:1,2013-01-09T22:00:00Z,30.2583,-88.2131,0.0,12.69,2 
DISL,ioos:station:DISL:KATA:1,2013-01-09T22:30:00Z,30.2583,-88.2131,0.0,12.7,2 
DISL,ioos:station:DISL:KATA:1,2013-01-09T23:00:00Z,30.2583,-88.2131,0.0,12.71,2 
DISL,ioos:station:DISL:KATA:1,2013-01-09T23:30:00Z,30.2583,-88.2131,0.0,12.72,2 
DISL,ioos:station:DISL:KATA:1,2013-01-10T00:00:00Z,30.2583,-88.2131,0.0,12.74,2 
DISL,ioos:station:DISL:KATA:1,2013-01-10T00:30:00Z,30.2583,-88.2131,0.0,12.85,2 
DISL,ioos:station:DISL:KATA:1,2013-01-10T01:00:00Z,30.2583,-88.2131,0.0,12.98,2 
DISL,ioos:station:DISL:KATA:1,2013-01-10T01:30:00Z,30.2583,-88.2131,0.0,13.11,2 
DISL,ioos:station:DISL:KATA:1,2013-01-10T02:00:00Z,30.2583,-88.2131,0.0,13.14,2 
DISL,ioos:station:DISL:KATA:1,2013-01-10T02:30:00Z,30.2583,-88.2131,0.0,13.13,2 
DISL,ioos:station:DISL:KATA:1,2013-01-10T03:00:00Z,30.2583,-88.2131,0.0,13.13,2 
DISL,ioos:station:DISL:KATA:1,2013-01-10T03:30:00Z,30.2583,-88.2131,0.0,13.11,2 
DISL,ioos:station:DISL:KATA:1,2013-01-10T04:00:00Z,30.2583,-88.2131,0.0,13.08,2 
DISL,ioos:station:DISL:KATA:1,2013-01-10T04:30:00Z,30.2583,-88.2131,0.0,13.06,2 
DISL,ioos:station:DISL:KATA:1,2013-01-10T05:00:00Z,30.2583,-88.2131,0.0,13.05,2 
DISL,ioos:station:DISL:KATA:1,2013-01-10T05:30:00Z,30.2583,-88.2131,0.0,12.91,2 
DISL,ioos:station:DISL:KATA:1,2013-01-10T06:00:00Z,30.2583,-88.2131,0.0,12.87,2 
DISL,ioos:station:DISL:KATA:1,2013-01-10T06:30:00Z,30.2583,-88.2131,0.0,12.79,2 
DISL,ioos:station:DISL:KATA:1,2013-01-10T07:00:00Z,30.2583,-88.2131,0.0,12.73,2 
DISL,ioos:station:DISL:KATA:1,2013-01-10T07:30:00Z,30.2583,-88.2131,0.0,12.69,2 
DISL,ioos:station:DISL:KATA:1,2013-01-10T08:00:00Z,30.2583,-88.2131,0.0,12.69,2 
DISL,ioos:station:DISL:KATA:1,2013-01-10T08:30:00Z,30.2583,-88.2131,0.0,12.7,2 
DISL,ioos:station:DISL:KATA:1,2013-01-10T09:00:00Z,30.2583,-88.2131,0.0,12.64,2 
DISL,ioos:station:DISL:KATA:1,2013-01-10T09:30:00Z,30.2583,-88.2131,0.0,12.57,2 
DISL,ioos:station:DISL:KATA:1,2013-01-10T10:00:00Z,30.2583,-88.2131,0.0,12.55,2 
DISL,ioos:station:DISL:KATA:1,2013-01-10T10:30:00Z,30.2583,-88.2131,0.0,12.48,2 
DISL,ioos:station:DISL:KATA:1,2013-01-10T11:00:00Z,30.2583,-88.2131,0.0,12.57,2 
DISL,ioos:station:DISL:KATA:1,2013-01-10T11:30:00Z,30.2583,-88.2131,0.0,13.09,2 
DISL,ioos:station:DISL:KATA:1,2013-01-10T12:00:00Z,30.2583,-88.2131,0.0,13.06,2 
DISL,ioos:station:DISL:KATA:1,2013-01-10T12:30:00Z,30.2583,-88.2131,0.0,13.09,2 
DISL,ioos:station:DISL:KATA:1,2013-01-10T13:00:00Z,30.2583,-88.2131,0.0,13.12,2 
DISL,ioos:station:DISL:KATA:1,2013-01-10T13:30:00Z,30.2583,-88.2131,0.0,13.25,2 
DISL,ioos:station:DISL:KATA:1,2013-01-10T14:00:00Z,30.2583,-88.2131,0.0,13.34,2 
DISL,ioos:station:DISL:KATA:1,2013-01-10T14:30:00Z,30.2583,-88.2131,0.0,13.41,2 
DISL,ioos:station:DISL:KATA:1,2013-01-10T15:00:00Z,30.2583,-88.2131,0.0,13.42,2 
DISL,ioos:station:DISL:KATA:1,2013-01-10T15:30:00Z,30.2583,-88.2131,0.0,13.44,2 
DISL,ioos:station:DISL:KATA:1,2013-01-10T16:00:00Z,30.2583,-88.2131,0.0,13.46,2 
DISL,ioos:station:DISL:KATA:1,2013-01-10T16:30:00Z,30.2583,-88.2131,0.0,13.47,2 
DISL,ioos:station:DISL:KATA:1,2013-01-10T17:00:00Z,30.2583,-88.2131,0.0,13.46,2 
DISL,ioos:station:DISL:KATA:1,2013-01-10T17:30:00Z,30.2583,-88.2131,0.0,13.44,2 
DISL,ioos:station:DISL:KATA:1,2013-01-10T18:00:00Z,30.2583,-88.2131,0.0,13.43,2 
DISL,ioos:station:DISL:KATA:1,2013-01-10T18:30:00Z,30.2583,-88.2131,0.0,13.43,2 
DISL,ioos:station:DISL:KATA:1,2013-01-10T19:00:00Z,30.2583,-88.2131,0.0,13.42,2 
DISL,ioos:station:DISL:KATA:1,2013-01-10T19:30:00Z,30.2583,-88.2131,0.0,13.44,2 
DISL,ioos:station:DISL:KATA:1,2013-01-10T20:00:00Z,30.2583,-88.2131,0.0,13.5,2 
DISL,ioos:station:DISL:KATA:1,2013-01-10T20:30:00Z,30.2583,-88.2131,0.0,13.52,2 
DISL,ioos:station:DISL:KATA:1,2013-01-10T21:00:00Z,30.2583,-88.2131,0.0,13.55,2 
DISL,ioos:station:DISL:KATA:1,2013-01-10T21:30:00Z,30.2583,-88.2131,0.0,13.55,2 
DISL,ioos:station:DISL:KATA:1,2013-01-10T22:00:00Z,30.2583,-88.2131,0.0,13.5,2 
DISL,ioos:station:DISL:KATA:1,2013-01-10T22:30:00Z,30.2583,-88.2131,0.0,13.59,2 
DISL,ioos:station:DISL:KATA:1,2013-01-10T23:00:00Z,30.2583,-88.2131,0.0,13.72,2 
DISL,ioos:station:DISL:KATA:1,2013-01-10T23:30:00Z,30.2583,-88.2131,0.0,13.8,2 
DISL,ioos:station:DISL:KATA:1,2013-01-11T00:00:00Z,30.2583,-88.2131,0.0,13.86,2 
DISL,ioos:station:DISL:KATA:1,2013-01-11T00:30:00Z,30.2583,-88.2131,0.0,14.02,2 
DISL,ioos:station:DISL:KATA:1,2013-01-11T01:00:00Z,30.2583,-88.2131,0.0,14.09,2 
DISL,ioos:station:DISL:KATA:1,2013-01-11T01:30:00Z,30.2583,-88.2131,0.0,14.09,2 
DISL,ioos:station:DISL:KATA:1,2013-01-11T02:00:00Z,30.2583,-88.2131,0.0,14.1,2 
DISL,ioos:station:DISL:KATA:1,2013-01-11T02:30:00Z,30.2583,-88.2131,0.0,14.14,2 
DISL,ioos:station:DISL:KATA:1,2013-01-11T03:00:00Z,30.2583,-88.2131,0.0,14.11,2 
DISL,ioos:station:DISL:KATA:1,2013-01-11T03:30:00Z,30.2583,-88.2131,0.0,14.02,2 
DISL,ioos:station:DISL:KATA:1,2013-01-11T04:00:00Z,30.2583,-88.2131,0.0,13.88,2 
DISL,ioos:station:DISL:KATA:1,2013-01-11T04:30:00Z,30.2583,-88.2131,0.0,13.78,2 
DISL,ioos:station:DISL:KATA:1,2013-01-11T05:00:00Z,30.2583,-88.2131,0.0,13.83,2 
DISL,ioos:station:DISL:KATA:1,2013-01-11T05:30:00Z,30.2583,-88.2131,0.0,14.04,2 
DISL,ioos:station:DISL:KATA:1,2013-01-11T06:00:00Z,30.2583,-88.2131,0.0,14.32,2 
DISL,ioos:station:DISL:KATA:1,2013-01-11T06:30:00Z,30.2583,-88.2131,0.0,14.33,2 
DISL,ioos:station:DISL:KATA:1,2013-01-11T07:00:00Z,30.2583,-88.2131,0.0,14.43,2 
DISL,ioos:station:DISL:KATA:1,2013-01-11T07:30:00Z,30.2583,-88.2131,0.0,14.45,2 
DISL,ioos:station:DISL:KATA:1,2013-01-11T08:00:00Z,30.2583,-88.2131,0.0,14.41,2 
DISL,ioos:station:DISL:KATA:1,2013-01-11T08:30:00Z,30.2583,-88.2131,0.0,14.33,2 
DISL,ioos:station:DISL:KATA:1,2013-01-11T09:00:00Z,30.2583,-88.2131,0.0,14.21,2 
DISL,ioos:station:DISL:KATA:1,2013-01-11T09:30:00Z,30.2583,-88.2131,0.0,14.09,2 
DISL,ioos:station:DISL:KATA:1,2013-01-11T10:00:00Z,30.2583,-88.2131,0.0,13.98,2 
DISL,ioos:station:DISL:KATA:1,2013-01-11T10:30:00Z,30.2583,-88.2131,0.0,14.04,2 
DISL,ioos:station:DISL:KATA:1,2013-01-11T11:00:00Z,30.2583,-88.2131,0.0,14.07,2 
DISL,ioos:station:DISL:KATA:1,2013-01-11T11:30:00Z,30.2583,-88.2131,0.0,14.09,2 
DISL,ioos:station:DISL:KATA:1,2013-01-11T12:00:00Z,30.2583,-88.2131,0.0,14.14,2 
DISL,ioos:station:DISL:KATA:1,2013-01-11T12:30:00Z,30.2583,-88.2131,0.0,14.14,2 
DISL,ioos:station:DISL:KATA:1,2013-01-11T13:00:00Z,30.2583,-88.2131,0.0,14.15,2 
DISL,ioos:station:DISL:KATA:1,2013-01-11T13:30:00Z,30.2583,-88.2131,0.0,14.12,2 
DISL,ioos:station:DISL:KATA:1,2013-01-11T14:00:00Z,30.2583,-88.2131,0.0,14.12,2 
DISL,ioos:station:DISL:KATA:1,2013-01-11T14:30:00Z,30.2583,-88.2131,0.0,14.13,2 
DISL,ioos:station:DISL:KATA:1,2013-01-11T15:00:00Z,30.2583,-88.2131,0.0,14.15,2 
DISL,ioos:station:DISL:KATA:1,2013-01-11T15:30:00Z,30.2583,-88.2131,0.0,14.14,2 
DISL,ioos:station:DISL:KATA:1,2013-01-11T16:00:00Z,30.2583,-88.2131,0.0,14.14,2 
DISL,ioos:station:DISL:KATA:1,2013-01-11T16:30:00Z,30.2583,-88.2131,0.0,14.15,2 
DISL,ioos:station:DISL:KATA:1,2013-01-11T17:00:00Z,30.2583,-88.2131,0.0,14.15,2 
DISL,ioos:station:DISL:KATA:1,2013-01-11T17:30:00Z,30.2583,-88.2131,0.0,14.33,2 
DISL,ioos:station:DISL:KATA:1,2013-01-11T18:00:00Z,30.2583,-88.2131,0.0,14.32,2 
DISL,ioos:station:DISL:KATA:1,2013-01-11T18:30:00Z,30.2583,-88.2131,0.0,14.32,2 
DISL,ioos:station:DISL:KATA:1,2013-01-11T19:00:00Z,30.2583,-88.2131,0.0,14.27,2 
DISL,ioos:station:DISL:KATA:1,2013-01-11T19:30:00Z,30.2583,-88.2131,0.0,14.2,2 
DISL,ioos:station:DISL:KATA:1,2013-01-11T20:00:00Z,30.2583,-88.2131,0.0,14.2,2 
DISL,ioos:station:DISL:KATA:1,2013-01-11T20:30:00Z,30.2583,-88.2131,0.0,14.21,2 
DISL,ioos:station:DISL:KATA:1,2013-01-11T21:00:00Z,30.2583,-88.2131,0.0,14.27,2 
DISL,ioos:station:DISL:KATA:1,2013-01-11T21:30:00Z,30.2583,-88.2131,0.0,14.29,2 
DISL,ioos:station:DISL:KATA:1,2013-01-11T22:00:00Z,30.2583,-88.2131,0.0,14.31,2 
DISL,ioos:station:DISL:KATA:1,2013-01-11T22:30:00Z,30.2583,-88.2131,0.0,14.32,2 
DISL,ioos:station:DISL:KATA:1,2013-01-11T23:00:00Z,30.2583,-88.2131,0.0,14.37,2 
DISL,ioos:station:DISL:KATA:1,2013-01-11T23:30:00Z,30.2583,-88.2131,0.0,14.4,2 
DISL,ioos:station:DISL:KATA:1,2013-01-12T00:00:00Z,30.2583,-88.2131,0.0,14.4,2 
DISL,ioos:station:DISL:KATA:1,2013-01-12T00:30:00Z,30.2583,-88.2131,0.0,14.41,2 
DISL,ioos:station:DISL:KATA:1,2013-01-12T01:00:00Z,30.2583,-88.2131,0.0,14.39,2 
DISL,ioos:station:DISL:KATA:1,2013-01-12T01:30:00Z,30.2583,-88.2131,0.0,14.39,2 
DISL,ioos:station:DISL:KATA:1,2013-01-12T02:00:00Z,30.2583,-88.2131,0.0,14.4,2 
DISL,ioos:station:DISL:KATA:1,2013-01-12T02:30:00Z,30.2583,-88.2131,0.0,14.4,2 
DISL,ioos:station:DISL:KATA:1,2013-01-12T03:00:00Z,30.2583,-88.2131,0.0,14.4,2 
DISL,ioos:station:DISL:KATA:1,2013-01-12T03:30:00Z,30.2583,-88.2131,0.0,14.4,2 
DISL,ioos:station:DISL:KATA:1,2013-01-12T04:00:00Z,30.2583,-88.2131,0.0,14.4,2 
DISL,ioos:station:DISL:KATA:1,2013-01-12T04:30:00Z,30.2583,-88.2131,0.0,14.39,2 
DISL,ioos:station:DISL:KATA:1,2013-01-12T05:00:00Z,30.2583,-88.2131,0.0,14.43,2 
DISL,ioos:station:DISL:KATA:1,2013-01-12T05:30:00Z,30.2583,-88.2131,0.0,14.43,2 
DISL,ioos:station:DISL:KATA:1,2013-01-12T06:00:00Z,30.2583,-88.2131,0.0,14.44,2 
DISL,ioos:station:DISL:KATA:1,2013-01-12T06:30:00Z,30.2583,-88.2131,0.0,14.45,2 
DISL,ioos:station:DISL:KATA:1,2013-01-12T07:00:00Z,30.2583,-88.2131,0.0,14.44,2 
DISL,ioos:station:DISL:KATA:1,2013-01-12T07:30:00Z,30.2583,-88.2131,0.0,14.44,2 
DISL,ioos:station:DISL:KATA:1,2013-01-12T08:00:00Z,30.2583,-88.2131,0.0,14.42,2 
DISL,ioos:station:DISL:KATA:1,2013-01-12T08:30:00Z,30.2583,-88.2131,0.0,14.39,2 
DISL,ioos:station:DISL:KATA:1,2013-01-12T09:00:00Z,30.2583,-88.2131,0.0,14.36,2 
DISL,ioos:station:DISL:KATA:1,2013-01-12T09:30:00Z,30.2583,-88.2131,0.0,14.34,2 
DISL,ioos:station:DISL:KATA:1,2013-01-12T10:00:00Z,30.2583,-88.2131,0.0,14.33,2 
DISL,ioos:station:DISL:KATA:1,2013-01-12T10:30:00Z,30.2583,-88.2131,0.0,14.35,2 
DISL,ioos:station:DISL:KATA:1,2013-01-12T11:00:00Z,30.2583,-88.2131,0.0,14.33,2 
DISL,ioos:station:DISL:KATA:1,2013-01-12T11:30:00Z,30.2583,-88.2131,0.0,14.32,2 
DISL,ioos:station:DISL:KATA:1,2013-01-12T12:00:00Z,30.2583,-88.2131,0.0,14.31,2 
DISL,ioos:station:DISL:KATA:1,2013-01-12T12:30:00Z,30.2583,-88.2131,0.0,14.3,2 
DISL,ioos:station:DISL:KATA:1,2013-01-12T13:00:00Z,30.2583,-88.2131,0.0,14.3,2 
DISL,ioos:station:DISL:KATA:1,2013-01-12T13:30:00Z,30.2583,-88.2131,0.0,14.29,2 
DISL,ioos:station:DISL:KATA:1,2013-01-12T14:00:00Z,30.2583,-88.2131,0.0,14.27,2 
DISL,ioos:station:DISL:KATA:1,2013-01-12T14:30:00Z,30.2583,-88.2131,0.0,14.27,2 
DISL,ioos:station:DISL:KATA:1,2013-01-12T15:00:00Z,30.2583,-88.2131,0.0,14.28,2 
DISL,ioos:station:DISL:KATA:1,2013-01-12T15:30:00Z,30.2583,-88.2131,0.0,14.29,2 
DISL,ioos:station:DISL:KATA:1,2013-01-12T16:00:00Z,30.2583,-88.2131,0.0,14.31,2 
DISL,ioos:station:DISL:KATA:1,2013-01-12T16:30:00Z,30.2583,-88.2131,0.0,14.33,2 
DISL,ioos:station:DISL:KATA:1,2013-01-12T17:00:00Z,30.2583,-88.2131,0.0,14.44,2 
DISL,ioos:station:DISL:KATA:1,2013-01-12T17:30:00Z,30.2583,-88.2131,0.0,14.46,2 
DISL,ioos:station:DISL:KATA:1,2013-01-12T18:00:00Z,30.2583,-88.2131,0.0,14.47,2 
DISL,ioos:station:DISL:KATA:1,2013-01-12T18:30:00Z,30.2583,-88.2131,0.0,14.52,2 
DISL,ioos:station:DISL:KATA:1,2013-01-12T19:00:00Z,30.2583,-88.2131,0.0,14.58,2 
DISL,ioos:station:DISL:KATA:1,2013-01-12T19:30:00Z,30.2583,-88.2131,0.0,14.59,2 
DISL,ioos:station:DISL:KATA:1,2013-01-12T20:00:00Z,30.2583,-88.2131,0.0,14.61,2 
DISL,ioos:station:DISL:KATA:1,2013-01-12T20:30:00Z,30.2583,-88.2131,0.0,14.64,2 
DISL,ioos:station:DISL:KATA:1,2013-01-12T21:00:00Z,30.2583,-88.2131,0.0,14.65,2 
DISL,ioos:station:DISL:KATA:1,2013-01-12T21:30:00Z,30.2583,-88.2131,0.0,14.69,2 
DISL,ioos:station:DISL:KATA:1,2013-01-12T22:00:00Z,30.2583,-88.2131,0.0,14.75,2 
DISL,ioos:station:DISL:KATA:1,2013-01-12T22:30:00Z,30.2583,-88.2131,0.0,14.79,2 
DISL,ioos:station:DISL:KATA:1,2013-01-12T23:00:00Z,30.2583,-88.2131,0.0,14.87,2 
DISL,ioos:station:DISL:KATA:1,2013-01-12T23:30:00Z,30.2583,-88.2131,0.0,14.97,2 
DISL,ioos:station:DISL:KATA:1,2013-01-13T00:00:00Z,30.2583,-88.2131,0.0,15.08,2 
DISL,ioos:station:DISL:KATA:1,2013-01-13T00:30:00Z,30.2583,-88.2131,0.0,15.17,2 
DISL,ioos:station:DISL:KATA:1,2013-01-13T01:00:00Z,30.2583,-88.2131,0.0,15.19,2 
DISL,ioos:station:DISL:KATA:1,2013-01-13T01:30:00Z,30.2583,-88.2131,0.0,15.19,2 
DISL,ioos:station:DISL:KATA:1,2013-01-13T02:00:00Z,30.2583,-88.2131,0.0,15.18,2 
DISL,ioos:station:DISL:KATA:1,2013-01-13T02:30:00Z,30.2583,-88.2131,0.0,15.21,2 
DISL,ioos:station:DISL:KATA:1,2013-01-13T03:00:00Z,30.2583,-88.2131,0.0,15.29,2 
DISL,ioos:station:DISL:KATA:1,2013-01-13T03:30:00Z,30.2583,-88.2131,0.0,15.3,2 
DISL,ioos:station:DISL:KATA:1,2013-01-13T04:00:00Z,30.2583,-88.2131,0.0,15.38,2 
DISL,ioos:station:DISL:KATA:1,2013-01-13T04:30:00Z,30.2583,-88.2131,0.0,15.25,2 
DISL,ioos:station:DISL:KATA:1,2013-01-13T05:00:00Z,30.2583,-88.2131,0.0,15.27,2 
DISL,ioos:station:DISL:KATA:1,2013-01-13T05:30:00Z,30.2583,-88.2131,0.0,15.31,2 
DISL,ioos:station:DISL:KATA:1,2013-01-13T06:00:00Z,30.2583,-88.2131,0.0,15.29,2 
DISL,ioos:station:DISL:KATA:1,2013-01-13T06:30:00Z,30.2583,-88.2131,0.0,15.31,2 
DISL,ioos:station:DISL:KATA:1,2013-01-13T07:00:00Z,30.2583,-88.2131,0.0,15.31,2 
DISL,ioos:station:DISL:KATA:1,2013-01-13T07:30:00Z,30.2583,-88.2131,0.0,15.31,2 
DISL,ioos:station:DISL:KATA:1,2013-01-13T08:00:00Z,30.2583,-88.2131,0.0,15.3,2 
DISL,ioos:station:DISL:KATA:1,2013-01-13T08:30:00Z,30.2583,-88.2131,0.0,15.29,2 
DISL,ioos:station:DISL:KATA:1,2013-01-13T09:00:00Z,30.2583,-88.2131,0.0,15.29,2 
DISL,ioos:station:DISL:KATA:1,2013-01-13T09:30:00Z,30.2583,-88.2131,0.0,15.24,2 
DISL,ioos:station:DISL:KATA:1,2013-01-13T10:00:00Z,30.2583,-88.2131,0.0,15.22,2 
DISL,ioos:station:DISL:KATA:1,2013-01-13T10:30:00Z,30.2583,-88.2131,0.0,15.19,2 
DISL,ioos:station:DISL:KATA:1,2013-01-13T11:00:00Z,30.2583,-88.2131,0.0,15.16,2 
DISL,ioos:station:DISL:KATA:1,2013-01-13T11:30:00Z,30.2583,-88.2131,0.0,15.15,2 
DISL,ioos:station:DISL:KATA:1,2013-01-13T12:00:00Z,30.2583,-88.2131,0.0,15.12,2 
DISL,ioos:station:DISL:KATA:1,2013-01-13T12:30:00Z,30.2583,-88.2131,0.0,15.11,2 
DISL,ioos:station:DISL:KATA:1,2013-01-13T13:00:00Z,30.2583,-88.2131,0.0,15.06,2 
DISL,ioos:station:DISL:KATA:1,2013-01-13T13:30:00Z,30.2583,-88.2131,0.0,15.06,2 
DISL,ioos:station:DISL:KATA:1,2013-01-13T14:00:00Z,30.2583,-88.2131,0.0,15.08,2 
DISL,ioos:station:DISL:KATA:1,2013-01-13T14:30:00Z,30.2583,-88.2131,0.0,15.13,2 
DISL,ioos:station:DISL:KATA:1,2013-01-13T15:00:00Z,30.2583,-88.2131,0.0,15.14,2 
DISL,ioos:station:DISL:KATA:1,2013-01-13T15:30:00Z,30.2583,-88.2131,0.0,15.13,2 
DISL,ioos:station:DISL:KATA:1,2013-01-13T16:00:00Z,30.2583,-88.2131,0.0,15.14,2 
DISL,ioos:station:DISL:KATA:1,2013-01-13T16:30:00Z,30.2583,-88.2131,0.0,15.17,2 
DISL,ioos:station:DISL:KATA:1,2013-01-13T17:00:00Z,30.2583,-88.2131,0.0,15.2,2 
DISL,ioos:station:DISL:KATA:1,2013-01-13T17:30:00Z,30.2583,-88.2131,0.0,15.24,2 